FW8972 Weather Reports


time (UTC)temp
C
wind
direction
speed
KPH
gust
KPH
rain 1hr
cm
rain 24hr
cm
rain mn
cm
humidity
%
barometer
mb
20260506143527 11 350 0.0 6.4 0.00 0.00 0.00 86 1017.5
20260506143028 11 298 0.0 1.6 0.00 0.00 0.00 86 1017.4
20260506142527 11 298 0.0 1.6 0.00 0.00 0.00 86 1017.5
20260506142025 11 298 0.0 4.8 0.00 0.00 0.00 86 1017.4
20260506141525 11 298 0.0 4.8 0.00 0.00 0.00 86 1017.4
20260506141025 11 326 1.6 4.8 0.00 0.00 0.00 86 1017.2
20260506140524 11 296 0.0 3.2 0.00 0.00 0.00 86 1017.2
20260506140024 10 273 0.0 3.2 0.00 0.00 0.00 86 1017.2
20260506135523 10 292 0.0 1.6 0.00 0.00 0.00 85 1017.1
20260506135023 10 292 0.0 0.0 0.00 0.00 0.00 85 1017.1
20260506134519 10 293 0.0 0.0 0.00 0.00 0.00 85 1017.1
20260506134019 10 293 0.0 0.0 0.00 0.00 0.00 85 1017.0
20260506133520 10 293 0.0 0.0 0.00 0.00 0.00 85 1016.9
20260506133017 10 293 0.0 0.0 0.00 0.00 0.00 85 1016.9
20260506132516 10 293 0.0 0.0 0.00 0.00 0.00 85 1016.8
20260506132019 10 293 0.0 0.0 0.00 0.00 0.00 85 1016.8
20260506131517 10 293 0.0 0.0 0.00 0.00 0.00 85 1016.8
20260506131016 10 293 0.0 1.6 0.00 0.00 0.00 85 1016.9
20260506130516 10 293 0.0 1.6 0.00 0.00 0.00 85 1016.7
20260506130013 10 293 0.0 1.6 0.00 0.00 0.00 84 1016.7
20260506125512 10 293 0.0 0.0 0.00 0.00 0.00 84 1016.6
20260506125013 10 293 0.0 0.0 0.00 0.00 0.00 84 1016.5
20260506124510 10 293 0.0 1.6 0.00 0.00 0.00 85 1016.6
20260506124010 10 293 0.0 3.2 0.00 0.00 0.00 85 1016.6
20260506123510 10 293 0.0 3.2 0.00 0.00 0.00 85 1016.6
20260506123010 10 294 0.0 4.8 0.00 0.00 0.00 85 1016.6
20260506122510 10 296 0.0 4.8 0.00 0.00 0.00 85 1016.5
20260506122009 10 306 0.0 3.2 0.00 0.00 0.00 84 1016.5
20260506121509 10 308 0.0 3.2 0.00 0.00 0.00 84 1016.6
20260506121008 10 287 0.0 0.0 0.00 0.00 0.00 84 1016.6
20260506120509 10 289 0.0 1.6 0.00 0.00 0.00 84 1016.5
20260506120008 10 289 0.0 1.6 0.00 0.00 0.00 85 1016.4
20260506115507 10 275 0.0 1.6 0.00 0.00 0.00 84 1016.4
20260506115005 10 238 0.0 1.6 0.00 0.00 0.00 84 1016.3
20260506114505 10 237 0.0 1.6 0.00 0.00 0.00 83 1016.2
20260506114004 9 237 0.0 1.6 0.00 0.00 0.00 82 1016.2
20260506113503 9 236 0.0 0.0 0.00 0.00 0.00 81 1016.0
20260506113003 9 236 0.0 0.0 0.00 0.00 0.00 81 1016.0
20260506112502 10 236 0.0 0.0 0.00 0.00 0.00 81 1015.8
20260506112001 10 236 0.0 0.0 0.00 0.00 0.00 81 1015.8
20260506111501 10 236 0.0 0.0 0.00 0.00 0.00 81 1015.9
20260506111001 10 236 0.0 0.0 0.00 0.00 0.00 81 1015.8
20260506110600 10 236 0.0 0.0 0.00 0.00 0.00 81 1015.8
20260506110100 10 236 0.0 0.0 0.00 0.00 0.00 80 1015.8
20260506105559 10 236 0.0 0.0 0.00 0.00 0.00 80 1015.8
20260506105059 10 236 0.0 0.0 0.00 0.00 0.00 80 1015.7
20260506104632 10 236 0.0 0.0 0.00 0.00 0.00 79 1015.7
20260506104057 10 236 0.0 0.0 0.00 0.00 0.00 79 1015.8
20260506103557 10 236 0.0 0.0 0.00 0.00 0.00 79 1015.7
20260506103100 10 236 0.0 0.0 0.00 0.00 0.00 79 1015.8
20260506102557 10 236 0.0 0.0 0.00 0.00 0.00 79 1015.8
20260506102057 10 236 0.0 0.0 0.00 0.00 0.00 78 1015.8
20260506101556 10 236 0.0 0.0 0.00 0.00 0.00 78 1015.8
20260506101056 10 236 0.0 0.0 0.00 0.00 0.00 78 1015.8
20260506100555 10 236 0.0 0.0 0.00 0.00 0.00 77 1015.6
20260506100054 10 236 0.0 0.0 0.00 0.00 0.00 77 1015.5
20260506095556 10 236 0.0 0.0 0.00 0.00 0.00 77 1015.5
20260506095052 10 236 0.0 0.0 0.00 0.00 0.00 77 1015.4
20260506094551 10 236 0.0 0.0 0.00 0.00 0.00 77 1015.4
20260506094049 10 236 0.0 0.0 0.00 0.00 0.00 77 1015.4
20260506093550 10 236 0.0 0.0 0.00 0.00 0.00 77 1015.4
20260506093048 10 236 0.0 0.0 0.00 0.00 0.00 77 1015.3
20260506092548 10 236 0.0 0.0 0.00 0.00 0.00 77 1015.2
20260506092047 10 236 0.0 0.0 0.00 0.00 0.00 76 1015.2
20260506091547 10 236 0.0 0.0 0.00 0.00 0.00 76 1015.1
20260506091047 10 236 0.0 0.0 0.00 0.00 0.00 76 1015.1
20260506090546 10 236 0.0 0.0 0.00 0.00 0.00 76 1015.1
20260506090048 10 236 0.0 0.0 0.00 0.00 0.00 76 1015.1
20260506085544 10 236 0.0 0.0 0.00 0.00 0.00 76 1015.0
20260506085048 11 236 0.0 0.0 0.00 0.00 0.00 75 1015.0
20260506084544 11 236 0.0 0.0 0.00 0.00 0.00 75 1014.9
20260506084043 11 236 0.0 0.0 0.00 0.00 0.00 75 1014.9
20260506083543 11 236 0.0 0.0 0.00 0.00 0.00 74 1014.7
20260506083046 11 236 0.0 0.0 0.00 0.00 0.00 74 1014.7
20260506082541 11 236 0.0 0.0 0.00 0.00 0.00 74 1014.7
20260506082040 10 236 0.0 0.0 0.00 0.00 0.00 73 1014.6
20260506081540 10 236 0.0 0.0 0.00 0.00 0.00 73 1014.5
20260506081039 10 236 0.0 0.0 0.00 0.00 0.00 72 1014.5
20260506080538 10 236 0.0 0.0 0.00 0.00 0.00 72 1014.4
20260506073032 11 236 0.0 0.0 0.00 0.00 0.00 69 1013.9
20260506072535 11 236 0.0 0.0 0.00 0.00 0.00 69 1014.0
20260506072030 11 236 0.0 0.0 0.00 0.00 0.00 69 1013.7
20260506071529 11 236 0.0 0.0 0.00 0.00 0.00 69 1013.9
20260506071027 12 236 0.0 0.0 0.00 0.00 0.00 68 1013.9
20260506070527 12 236 0.0 0.0 0.00 0.00 0.00 68 1013.7
20260506062024 13 236 0.0 6.4 0.00 0.00 0.00 68 1013.6
20260506061524 13 186 0.0 3.2 0.00 0.00 0.00 68 1013.4
20260506061027 13 236 0.0 4.8 0.00 0.00 0.00 68 1013.5
20260506060523 13 229 0.0 6.4 0.00 0.00 0.00 68 1013.5
20260506051021 13 230 0.0 4.8 0.00 0.00 0.00 64 1013.3
20260506050521 14 229 0.0 3.2 0.00 0.00 0.00 64 1013.3
20260506045020 14 230 0.0 6.4 0.00 0.00 0.00 63 1013.1
20260506044526 14 194 0.0 6.4 0.00 0.00 0.00 62 1013.0
20260506044020 14 214 0.0 3.2 0.00 0.00 0.00 62 1013.0
20260506043523 15 211 0.0 4.8 0.00 0.00 0.00 62 1012.9
20260506043020 15 211 0.0 6.4 0.00 0.00 0.00 61 1012.9
20260506042523 15 214 0.0 4.8 0.00 0.00 0.00 61 1012.8
20260506042019 15 216 1.6 3.2 0.00 0.00 0.00 60 1012.7
20260506041519 15 199 0.0 4.8 0.00 0.00 0.00 60 1012.7
20260506041020 15 189 0.0 6.4 0.00 0.00 0.00 59 1012.7
20260506040519 15 184 0.0 6.4 0.00 0.00 0.00 58 1012.7
20260506040028 15 213 0.0 4.8 0.00 0.00 0.00 57 1012.6
20260506035518 15 234 0.0 4.8 0.00 0.00 0.00 57 1012.6
20260506035018 16 183 0.0 4.8 0.00 0.00 0.00 56 1012.6
20260506034519 16 194 0.0 9.7 0.00 0.00 0.00 56 1012.4
20260506034019 16 217 1.6 9.7 0.00 0.00 0.00 56 1012.5
20260506033518 16 217 0.0 4.8 0.00 0.00 0.00 55 1012.3
20260506033021 16 173 0.0 6.4 0.00 0.00 0.00 55 1012.4
20260506032517 16 205 0.0 6.4 0.00 0.00 0.00 55 1012.3
20260506032017 16 172 0.0 8.0 0.00 0.00 0.00 54 1012.2
20260506031518 17 205 1.6 8.0 0.00 0.00 0.00 54 1012.3
20260506031020 17 161 1.6 8.0 0.00 0.00 0.00 54 1012.1
20260506030518 17 167 1.6 11.3 0.00 0.00 0.00 53 1012.2
20260506030020 17 187 1.6 11.3 0.00 0.00 0.00 52 1012.3
20260506025516 17 224 1.6 8.0 0.00 0.00 0.00 51 1012.3
20260506025016 17 173 3.2 6.4 0.00 0.00 0.00 50 1012.3
20260506024526 18 194 1.6 6.4 0.00 0.00 0.00 50 1012.4
20260506024016 18 152 1.6 8.0 0.00 0.00 0.00 49 1012.3
20260506023520 18 165 1.6 6.4 0.00 0.00 0.00 48 1012.3
20260506023016 18 169 3.2 6.4 0.00 0.00 0.00 48 1012.3
20260506022515 19 146 1.6 6.4 0.00 0.00 0.00 47 1012.2
20260506022015 19 188 1.6 4.8 0.00 0.00 0.00 47 1012.1
20260506021530 19 157 1.6 9.7 0.00 0.00 0.00 46 1012.1
20260506021015 20 180 1.6 6.4 0.00 0.00 0.00 46 1012.0
20260506020518 20 157 1.6 9.7 0.00 0.00 0.00 46 1012.1
20260506020016 20 167 4.8 9.7 0.00 0.00 0.00 46 1012.1
20260506015517 20 158 1.6 9.7 0.00 0.00 0.00 46 1012.2
20260506015017 20 188 3.2 8.0 0.00 0.00 0.00 46 1012.1
20260506014522 20 169 1.6 6.4 0.00 0.00 0.00 46 1012.1
20260506014013 20 169 1.6 8.0 0.00 0.00 0.00 46 1012.1
20260506013514 20 128 1.6 8.0 0.00 0.00 0.00 46 1012.1
20260506013014 20 130 1.6 4.8 0.00 0.00 0.00 45 1012.1
20260506012514 20 124 1.6 8.0 0.00 0.00 0.00 45 1012.2
20260506012019 20 169 3.2 9.7 0.00 0.00 0.00 44 1012.2
20260506011521 20 161 3.2 9.7 0.00 0.00 0.00 44 1012.2
20260506011013 20 174 4.8 9.7 0.00 0.00 0.00 43 1012.2
20260506010513 20 100 3.2 9.7 0.00 0.00 0.00 43 1012.2
20260506010014 21 130 3.2 8.0 0.00 0.00 0.00 42 1012.2
20260506005512 21 104 1.6 9.7 0.00 0.00 0.00 41 1012.1
20260506005015 21 175 3.2 9.7 0.00 0.00 0.00 41 1012.2
20260506004511 21 154 3.2 12.9 0.00 0.00 0.00 41 1012.3
20260506004010 21 167 1.6 12.9 0.00 0.00 0.00 42 1012.3
20260506003510 21 80 4.8 11.3 0.00 0.00 0.00 42 1012.4
20260506003010 21 138 3.2 9.7 0.00 0.00 0.00 42 1012.5
20260506002513 21 130 3.2 9.7 0.00 0.00 0.00 42 1012.4
20260506002009 21 150 4.8 11.3 0.00 0.00 0.00 41 1012.4
20260506001542 21 157 4.8 11.3 0.00 0.00 0.00 41 1012.4
20260506001008 21 108 3.2 11.3 0.00 0.00 0.00 40 1012.4
20260506000508 21 172 3.2 11.3 0.00 0.00 0.00 39 1012.4
20260506000006 21 112 3.2 12.9 0.00 0.00 0.00 39 1012.5
20260505235504 21 97 4.8 12.9 0.00 0.00 0.00 39 1012.6
20260505235006 21 111 3.2 11.3 0.00 0.00 0.00 40 1012.5
20260505234508 21 123 3.2 12.9 0.00 0.00 0.00 40 1012.6
20260505234002 21 146 3.2 12.9 0.00 0.00 0.00 40 1012.5
20260505233501 21 111 4.8 12.9 0.00 0.00 0.00 39 1012.4
20260505233001 21 126 3.2 11.3 0.00 0.00 0.00 40 1012.4
20260505232501 21 186 6.4 11.3 0.00 0.00 0.00 39 1012.6
20260505232001 21 105 4.8 12.9 0.00 0.00 0.00 39 1012.7
20260505231501 21 151 4.8 12.9 0.00 0.00 0.00 38 1012.7
20260505231002 21 217 4.8 12.9 0.00 0.00 0.00 39 1012.7
20260505230603 21 97 3.2 14.5 0.00 0.00 0.00 39 1012.7
20260505230100 21 101 4.8 12.9 0.00 0.00 0.00 40 1012.7
20260505225559 21 205 3.2 14.5 0.00 0.00 0.00 39 1012.7
20260505225059 21 108 6.4 16.1 0.00 0.00 0.00 39 1012.9
20260505224559 21 137 6.4 16.1 0.00 0.00 0.00 39 1012.7
20260505224058 21 178 4.8 14.5 0.00 0.00 0.00 40 1012.8
20260505223558 21 84 4.8 14.5 0.00 0.00 0.00 40 1012.8
20260505223108 21 111 6.4 14.5 0.00 0.00 0.00 40 1013.0
20260505222558 21 132 6.4 14.5 0.00 0.00 0.00 40 1013.0
20260505222058 21 124 6.4 14.5 0.00 0.00 0.00 40 1013.0
20260505221603 21 142 4.8 11.3 0.00 0.00 0.00 40 1013.0
20260505221058 21 130 6.4 12.9 0.00 0.00 0.00 40 1013.3
20260505220557 21 123 4.8 12.9 0.00 0.00 0.00 41 1013.3
20260505220100 21 113 6.4 14.5 0.00 0.00 0.00 39 1013.3
20260505215558 22 190 3.2 12.9 0.00 0.00 0.00 40 1013.3
20260505215056 22 110 6.4 12.9 0.00 0.00 0.00 40 1013.4
20260505214603 22 119 3.2 11.3 0.00 0.00 0.00 40 1013.5
20260505214057 22 159 8.0 12.9 0.00 0.00 0.00 41 1013.5
20260505213557 22 133 4.8 11.3 0.00 0.00 0.00 41 1013.6
20260505213055 21 152 3.2 11.3 0.00 0.00 0.00 42 1013.5
20260505212554 21 134 4.8 11.3 0.00 0.00 0.00 42 1013.5
20260505212053 21 133 6.4 14.5 0.00 0.00 0.00 43 1013.5
20260505211610 21 131 3.2 14.5 0.00 0.00 0.00 45 1013.6
20260505211051 21 119 3.2 14.5 0.00 0.00 0.00 44 1013.7
20260505210551 21 75 4.8 14.5 0.00 0.00 0.00 44 1013.7
20260505210053 21 122 6.4 12.9 0.00 0.00 0.00 45 1013.6
20260505205550 21 117 4.8 12.9 0.00 0.00 0.00 44 1013.7
20260505205049 21 145 4.8 12.9 0.00 0.00 0.00 44 1013.7
20260505204549 20 121 6.4 14.5 0.00 0.00 0.00 43 1013.6
20260505204048 20 115 6.4 12.9 0.00 0.00 0.00 44 1013.8
20260505203547 20 142 6.4 14.5 0.00 0.00 0.00 45 1013.9
20260505203105 20 86 4.8 14.5 0.00 0.00 0.00 45 1013.9
20260505202546 20 148 8.0 14.5 0.00 0.00 0.00 45 1013.8
20260505202047 20 101 6.4 14.5 0.00 0.00 0.00 46 1013.8
20260505201546 20 101 6.4 12.9 0.00 0.00 0.00 47 1013.7
20260505201046 20 103 4.8 12.9 0.00 0.00 0.00 47 1013.8
20260505200546 20 118 3.2 14.5 0.00 0.00 0.00 47 1013.8
20260505200046 20 106 6.4 14.5 0.00 0.00 0.00 48 1013.7
20260505195544 20 157 6.4 12.9 0.00 0.00 0.00 47 1013.8
20260505195044 20 118 6.4 16.1 0.00 0.00 0.00 47 1013.9
20260505194544 20 101 6.4 16.1 0.00 0.00 0.00 47 1013.9
20260505194043 20 129 8.0 16.1 0.00 0.00 0.00 47 1013.9
20260505193542 20 78 8.0 14.5 0.00 0.00 0.00 47 1013.9
20260505193041 20 190 3.2 12.9 0.00 0.00 0.00 48 1013.9
20260505192545 20 140 4.8 14.5 0.00 0.00 0.00 48 1013.8
20260505192040 19 117 6.4 14.5 0.00 0.00 0.00 48 1013.9
20260505191545 20 110 6.4 16.1 0.00 0.00 0.00 47 1013.8
20260505191039 20 78 9.7 16.1 0.00 0.00 0.00 45 1013.8
20260505190538 20 64 8.0 14.5 0.00 0.00 0.00 46 1013.7
20260505190041 20 144 3.2 12.9 0.00 0.00 0.00 46 1013.7
20260505185539 20 115 6.4 12.9 0.00 0.00 0.00 43 1013.7
20260505185035 20 143 4.8 12.9 0.00 0.00 0.00 45 1013.8
20260505184545 20 132 4.8 12.9 0.00 0.00 0.00 47 1013.8
20260505184033 20 105 6.4 12.9 0.00 0.00 0.00 46 1013.8
20260505183531 20 111 6.4 12.9 0.00 0.00 0.00 46 1013.7
20260505183038 20 115 3.2 11.3 0.00 0.00 0.00 45 1013.7
20260505182533 20 132 4.8 9.7 0.00 0.00 0.00 45 1013.7
20260505182028 20 173 3.2 9.7 0.00 0.00 0.00 48 1013.7
20260505181527 20 199 3.2 11.3 0.00 0.00 0.00 48 1013.8
20260505181027 20 30 3.2 11.3 0.00 0.00 0.00 48 1013.7
20260505180527 20 360 3.2 11.3 0.00 0.00 0.00 49 1013.6
20260505180023 19 116 3.2 11.3 0.00 0.00 0.00 49 1013.7
20260505175521 20 123 4.8 11.3 0.00 0.00 0.00 49 1013.7
20260505175022 20 53 3.2 11.3 0.00 0.00 0.00 49 1013.7
20260505174518 19 41 4.8 14.5 0.00 0.00 0.00 50 1013.6
20260505174017 19 80 4.8 14.5 0.00 0.00 0.00 50 1013.7
20260505173515 19 82 1.6 8.0 0.00 0.00 0.00 50 1013.6
20260505173016 18 115 1.6 9.7 0.00 0.00 0.00 51 1013.6
20260505172513 18 123 3.2 9.7 0.00 0.00 0.00 51 1013.6
20260505172011 18 89 3.2 9.7 0.00 0.00 0.00 51 1013.7
20260505171510 18 105 4.8 11.3 0.00 0.00 0.00 52 1013.8
20260505171009 18 65 1.6 12.9 0.00 0.00 0.00 52 1013.8
20260505170506 18 137 3.2 12.9 0.00 0.00 0.00 53 1013.7
20260505170010 18 96 1.6 11.3 0.00 0.00 0.00 54 1013.7
20260505165504 18 155 3.2 14.5 0.00 0.00 0.00 54 1013.7
20260505165005 17 185 4.8 16.1 0.00 0.00 0.00 54 1013.7
20260505164501 17 107 6.4 16.1 0.00 0.00 0.00 55 1013.6
20260505164104 18 109 6.4 12.9 0.00 0.00 0.00 55 1013.7
20260505163558 18 148 4.8 12.9 0.00 0.00 0.00 55 1013.6
20260505163056 17 104 6.4 12.9 0.00 0.00 0.00 56 1013.6
20260505162555 17 134 8.0 12.9 0.00 0.00 0.00 55 1013.6
20260505162054 18 143 3.2 12.9 0.00 0.00 0.00 56 1013.5
20260505161553 18 94 4.8 12.9 0.00 0.00 0.00 56 1013.5
20260505161051 18 205 3.2 11.3 0.00 0.00 0.00 56 1013.4
20260505160551 17 149 3.2 9.7 0.00 0.00 0.00 56 1013.5
20260505153048 17 110 3.2 6.4 0.00 0.00 0.00 60 1013.2
20260505152539 17 146 3.2 6.4 0.00 0.00 0.00 60 1013.1
20260505152040 16 116 3.2 6.4 0.00 0.00 0.00 60 1013.1
20260505151543 16 150 1.6 6.4 0.00 0.00 0.00 60 1012.9
20260505151036 16 132 3.2 4.8 0.00 0.00 0.00 60 1012.9
20260505150535 16 125 1.6 4.8 0.00 0.00 0.00 61 1012.8